Tracking 18980 objects as of 20-Feb-2018
HD Live streaming from Space Station
objects crossing your sky now

FENGYUN 1C DEB

Track FENGYUN 1C DEB now!
10-day predictions


NORAD ID: 29774
Int'l Code: 1999-025BQ
Perigee: 792.9 km
Apogee: 866.7 km
Inclination: 99.2 °
Period: 101.4 minutes
Semi major axis: 7200 km
RCS: 0.071 m2 (small)
Launch date: May 10, 1999
Source: People's Republic of China (PRC)
Launch site: Taiyaun Space Center, China (TSC)

Note: This is SATELLITE DEBRIS
aabbcc
Your satellite tracking list
Your tracking list is empty




NASA's NSSDC Master Catalog

Two Line Element Set (TLE):
1 29774U 99025BQ  18050.93548286 +.00000034 +00000-0 +37690-4 0  9999
2 29774 099.1977 222.6798 0051254 341.0296 139.8998 14.20795424575508
Source of the keplerian elements: AFSPC